STARLINK-5212, 54075

Orbit data source: Space-Track

STARLINK-5212, 54075 is a payload satellite owned by SpaceX/Seattle (US) in LEO that was launched on Thu, 20 Oct 2022 UTC via an FALCON 9 launch vehicle from the Air Force Eastern Test Range (AFETR). Payload-class satellites include a variety of spacecraft equipped with specific instruments for various scientific and technological missions. These include communications satellites like Starlink; space stations such as the ISS; scientific satellites like the Hubble; Earth observation satellites from companies like Planet Labs, Umbra, and HawkEye 360; GPS; miniature CubeSats for education and research; and military/defense satellites.

Loading next visibility...
Identifier
54075, 2022-136AA
Orbit
LEO
Country
Flag of USUS
Related business
Manufacturer
SpaceX/Seattle
Mission
Operational Commercial Communications
Bus & Motor
STARLINK, Unknown motor
Mass
305 kg wet, ~290 kg dry
Launch date (UTC)
2022-10-20 (3 years ago)
Launch vehicle
FALCON 9
Launch site
Air Force Eastern Test Range (AFETR)
Object type
Payload
Rocket body
Debris
Shape & HBR
Box + 1 Pan, 4.4 m
Radar Cross Section
13.562 m², Large (>1 m²)

Expand to show TLE details & history
Last TLE update: 19 hours ago

TLE from 19 hours ago
0 STARLINK-5212
1 54075U 22136AA  25260.69741536 -.00000024  00000-0  16601-4 0  9996
2 54075  53.2184  35.3290 0001327  88.2615 271.8529 15.08836557160808
Epoch: 2025-09-17T16:44Z
TLE epoch observation values (Epoch: 2025-09-17T16:44:16.687Z)
Latitude
-0.00001°
Longitude
147.38982°
Altitude
540.622 km
Speed
7.593 km/s
True Right ascension
02h 21m 18s
True Declination
0° 00' 00"
Sunlit
Object was in full shadow at epoch
Visualization orbit readout
Latitude
Unknown
Longitude
Unknown
Altitude
Unknown
Speed
Unknown
Apparent Right ascension
Unknown
Apparent Declination
Unknown
Sunlit
N/A
Visualization observer readout
Local Sidereal Time
05:02:37
Azimuth
Unknown
Elevation
Unknown
Doppler factor
Unknown
Orbital elements
Apogee altitude
540.917 km
Perigee altitude
539.081 km
Semi-major axis
6,918.136 km
Eccentricity
0.00013
Inclination
53.2184°
RAAN
35.329°
Arg. of periapsis
88.2615°
True anomaly
271.8377°
Mean anomaly
271.8529°
Eccentric anomaly
271.8453°
Mean motion
3.77189 °/min
Orbital period
95.44 mins
BSTAR
0.000016601
Loading maneuver chart data...
Computing Atmospheric mass density...
Loading historical data...
Loading historical data...
Loading historical data...
Loading historical data...
Loading historical data...
Loading historical data...
Loading historical data...

Documentation

Showing up to 5 results
|